PEGASUS DEB, 23986

Orbit data source: Space-Track

PEGASUS DEB, 23986 is space debris in LEO originally from a launch on Thu, 19 May 1994 UTC launched from the Air Force Western Test Range (AFWTR). Debris objects in space refer to the collection of defunct objects orbiting the Earth. Examples of debris include non-operational satellites, rocket bodies, and fragments generated from explosions, collisions, or faulty payload assembly.

Loading next visibility...
Identifier
23986, 1994-029AG
Orbit
LEO
Country
Flag of USUS
Related business
Manufacturer
Unknown
Mission
Spacecraft
Bus & Motor
Unknown
Mass
Unknown
Launch date (UTC)
1994-05-19 (32 years ago)
Launch vehicle
Unknown
Launch site
Air Force Western Test Range (AFWTR)
Object type
Payload
Rocket body
Debris
Shape & HBR
Unknown shape, 0.1 m
Radar Cross Section
Small (<0.1 m²)

Expand to show TLE details & history
Last TLE update: 13 hours ago

TLE from 13 hours ago
0 PEGASUS DEB
1 23986U 94029AG  26118.79605857  .00024875  00000-0  60868-3 0  9994
2 23986  82.0412  31.6469 0027555 346.3387  13.7108 15.40237155623165
Epoch: 2026-04-28T19:06Z
TLE epoch observation values (Epoch: 2026-04-28T19:06:19.460Z)
Latitude
-0.00002°
Longitude
-111.70042°
Altitude
430.242 km
Speed
7.664 km/s
True Right ascension
02h 06m 35s
True Declination
0° 00' 00"
Sunlit
Object was in daylight at epoch
Visualization orbit readout
Latitude
Unknown
Longitude
Unknown
Altitude
Unknown
Speed
Unknown
Apparent Right ascension
Unknown
Apparent Declination
Unknown
Sunlit
N/A
Visualization observer readout
Local Sidereal Time
15:15:49
Azimuth
Unknown
Elevation
Unknown
Doppler factor
Unknown
Orbital elements
Apogee altitude
461.166 km
Perigee altitude
423.578 km
Semi-major axis
6,820.509 km
Eccentricity
0.00276
Inclination
82.0412°
RAAN
31.6469°
Arg. of periapsis
346.3387°
True anomaly
13.78589°
Mean anomaly
13.7108°
Eccentric anomaly
13.74832°
Mean motion
3.85317 °/min
Orbital period
93.43 mins
BSTAR
0.00060868
Loading maneuver chart data...
Computing Atmospheric mass density...
Loading historical data...
Loading historical data...
Loading historical data...
Loading historical data...
Loading historical data...
Loading historical data...
Loading historical data...

Documentation

Showing up to 5 results
|